Location: Bratislava
(0.0000°N, 17.1167°E)
Time: 06:00:15
(UTC+01:00)

GPS 2-04 Rocket1 - Pass Details

Date: 24 January 2021
Orbit: 416 x 543 km, 35.6° (Epoch: 04 March)

Event Time Altitude Azimuth Distance (km) Brightness Sun altitude
Rises 18:30:26 0° 210° (SSW) 2,351 6.9 -6.3°
Reaches altitude 10° 18:32:57 10° 192° (SSW) 1,481 5.5 -6.9°
Maximum altitude 18:35:28 20° 143° (SE) 1,033 4.1 -7.5°
Drops below altitude 10° 18:38:00 10° 94° (E) 1,482 4.5 -8.1°
Enters shadow 18:38:12 - 92° (E) 1,543 4.5 -8.1°
